Parkersburg, WV

1:16 PM EST on February 24, 2018 (GMT -0500)
Wood County Wilson

Weather History for KPKB - November, 2012

Change the Weather History Date:

Monday, November 12, 2012

  Actual Average Record
Temperature  
Mean Temperature 53 °F 47 °F  
Max Temperature 71 °F 57 °F 77 °F (1949)
Min Temperature 35 °F 37 °F 20 °F (1926)
Degree Days  
Heating Degree Days 12 18  
Month to date heating degree days 251 198  
Since 1 July heating degree days 694 592  
Cooling Degree Days 0 0  
Month to date cooling degree days 0 0  
Year to date cooling degree days 1180 953  
Growing Degree Days 4 (Base 50)    
Moisture  
Dew Point 43 °F    
Average Humidity 67    
Maximum Humidity 93    
Minimum Humidity 41    
Precipitation  
Precipitation 0.28 in 0.11 in 1.64 in (2003)
Month to date precipitation 0.42 1.28  
Year to date precipitation 36.53 36.01  
Sea Level Pressure  
Sea Level Pressure 30.22 in    
Wind  
Wind Speed 10 mph (SW)    
Max Wind Speed 23 mph    
Max Gust Speed 36 mph    
Visibility 9 miles    
Events Rain    
T = Trace of Precipitation, MM = Missing Value Source: NWS Daily Summary

Daily Weather History Graph

Daily Weather History Graph

Search for Another Location

Airport or City:

Trip Planner

Search our weather history database for the weather conditions in past years. The results will help you decide how hot, cold, wet, or windy it might be!

Date:

Astronomy

Nov. 12, 2012 Rise Set
Actual Time 7:06 AM EST 5:12 PM EST
Civil Twilight 6:38 AM EST 5:41 PM EST
Nautical Twilight 6:05 AM EST 6:13 PM EST
Astronomical Twilight 5:34 AM EST 6:45 PM EST
Moon 5:30 AM EST (11/12) 4:16 PM EST (11/12)
Length of Visible Light 11h 03m
Length of Day
10h 06m
Waning Crescent, 2% of the Moon is Illuminated
Nov 12
Waning Crescent
Nov 13
New
Nov 20
First Quarter
Nov 28
Full
Dec 6
Last Quarter

Hourly Weather History & Observations

Time (EST) Temp. Windchill Dew Point Humidity Pressure Visibility Wind Dir Wind Speed Gust Speed Precip Events Conditions
12:53 AM 64.0 °F - 43.0 °F 46% 30.21 in 10.0 mi SSE 9.2 mph - N/A   Clear
1:53 AM 64.0 °F - 44.1 °F 48% 30.20 in 10.0 mi SSE 11.5 mph - N/A   Clear
2:53 AM 64.0 °F - 45.0 °F 50% 30.20 in 10.0 mi SSE 10.4 mph - N/A   Clear
3:53 AM 63.0 °F - 46.0 °F 54% 30.19 in 10.0 mi SSE 6.9 mph - N/A   Clear
4:53 AM 62.1 °F - 46.0 °F 56% 30.18 in 10.0 mi SSE 6.9 mph - N/A   Clear
5:53 AM 62.1 °F - 46.9 °F 58% 30.17 in 10.0 mi SE 8.1 mph - N/A   Clear
7:53 AM 63.0 °F - 48.0 °F 58% 30.16 in 10.0 mi SSE 8.1 mph 17.3 mph N/A   Clear
8:53 AM 66.0 °F - 48.9 °F 54% 30.16 in 10.0 mi South 9.2 mph - N/A   Clear
9:53 AM 68.0 °F - 48.9 °F 50% 30.16 in 10.0 mi SSE 11.5 mph 24.2 mph N/A   Clear
10:53 AM 69.1 °F - 48.0 °F 47% 30.12 in 10.0 mi South 16.1 mph 24.2 mph N/A   Mostly Cloudy
11:53 AM 70.0 °F - 46.9 °F 44% 30.08 in 10.0 mi South 12.7 mph 29.9 mph N/A   Overcast
12:53 PM 71.1 °F - 46.9 °F 42% 30.04 in 10.0 mi SSE 10.4 mph 26.5 mph N/A   Mostly Cloudy
1:53 PM 71.1 °F - 46.0 °F 41% 30.01 in 10.0 mi South 17.3 mph 28.8 mph 0.00 in Rain Light Rain
2:53 PM 66.9 °F - 48.0 °F 51% 30.02 in 10.0 mi SSW 8.1 mph - 0.00 in   Overcast
3:24 PM 55.4 °F - 51.8 °F 88% 30.08 in 3.0 mi West 18.4 mph 34.5 mph 0.01 in Rain Light Rain
3:53 PM 52.0 °F - 48.9 °F 89% 30.10 in 4.0 mi WNW 13.8 mph 25.3 mph 0.02 in Rain Light Rain
4:13 PM 51.8 °F - 48.2 °F 88% 30.13 in 2.5 mi West 12.7 mph 20.7 mph 0.02 in Rain Light Rain
4:53 PM 48.9 °F - 46.9 °F 93% 30.19 in 2.0 mi WNW 15.0 mph 26.5 mph 0.11 in Rain Rain
5:53 PM 46.0 °F 39.6 °F 42.1 °F 86% 30.25 in 2.0 mi West 15.0 mph 20.7 mph 0.07 in Rain Light Rain
6:00 PM 46.4 °F 40.4 °F 42.8 °F 87% 30.26 in 8.0 mi West 13.8 mph 24.2 mph 0.01 in Rain Light Rain
6:20 PM 44.6 °F 37.8 °F 41.0 °F 87% 30.28 in 7.0 mi West 15.0 mph 21.9 mph 0.02 in Rain Light Rain
6:51 PM 42.8 °F 37.0 °F 37.4 °F 81% 30.30 in 9.0 mi West 10.4 mph - 0.04 in Rain Light Rain
6:53 PM 43.0 °F 37.2 °F 37.9 °F 82% 30.30 in 10.0 mi West 10.4 mph - 0.04 in Rain Light Rain
7:49 PM 42.8 °F 37.5 °F 35.6 °F 76% 30.32 in 10.0 mi West 9.2 mph - 0.01 in Rain Light Rain
8:50 PM 41.0 °F 38.0 °F 37.4 °F 87% 30.35 in 10.0 mi South 4.6 mph - 0.03 in   Overcast
8:53 PM 41.0 °F - 37.9 °F 89% 30.34 in 10.0 mi Calm Calm - 0.03 in Rain Light Rain
9:20 PM 41.0 °F - 37.4 °F 87% 30.35 in 10.0 mi Calm Calm - 0.00 in   Overcast
9:53 PM 39.9 °F 32.9 °F 36.0 °F 86% 30.38 in 10.0 mi West 11.5 mph 17.3 mph 0.00 in   Overcast
10:50 PM 37.4 °F 28.2 °F 32.0 °F 81% 30.41 in 10.0 mi West 16.1 mph 21.9 mph N/A   Mostly Cloudy
10:53 PM 37.0 °F 28.5 °F 32.0 °F 82% 30.41 in 10.0 mi West 13.8 mph 21.9 mph N/A   Mostly Cloudy
11:53 PM 35.1 °F 30.1 °F 28.9 °F 78% 30.43 in 10.0 mi West 5.8 mph - N/A   Clear